User: anonymous   Login
Location: Bridgewater Hill Observatory
(43.5992°N, 72.6989°W)
Time: 01:31:00
(UTC-04:00)
Language:

Cosmos 1452 Rocket - Orbit

View from above orbital plane
View from above orbital plane
View from above satellite
View from above satellite

Ground track
Ground track

The orbit data is extracted from the following two-line orbital elements,

1 13992U 83031B   16212.66432125  .00000075  00000-0  34913-4 0  9996
2 13992  74.0516 236.8270 0006261 293.6373 198.5380 14.36044478742654
Epoch (UTC): 30 July 2016 15:56:37
Eccentricity: 0.0006261
inclination: 74.0516°
perigee height: 767 km
apogee height: 776 km
right ascension of ascending node: 236.8270°
argument of perigee: 293.6373°
revolutions per day: 14.36044478
mean anomaly at epoch: 198.5380°
orbit number at epoch: 74265

The dashed part of the orbit path shows where the satellite is in the earth's shadow,  

DLR